When you browse on this site, cookies collect data to enhance your experience and personalize the content and advertising you see.
Visit our Privacy Policy to learn more. By continuing to use the site, you agree to this use of cookies and data.
  • en Suisse
  • Liste des pays
  • À 7 jours
  • Température de l'eau
  • Carte météo
  • Widgets météo
  • user-avatar
    Se connecter

    Météo par heure à Mozoli

    Ce jour, 22 Septembre, Dimanche

    Heure Température Précipitation Vent Pression Humidité
    00:00 +12°C° 0 mm 5 m/s 749 mmHg 90%
    01:00 +10°C° 0 mm 5 m/s 749 mmHg 91%
    02:00 +12°C° 0 mm 5 m/s 749 mmHg 90%
    03:00 +12°C° 0 mm 4 m/s 749 mmHg 90%
    04:00 +11°C° 0 mm 4 m/s 749 mmHg 90%
    05:00 +11°C° 0 mm 4 m/s 749 mmHg 89%
    06:00 +11°C° 0 mm 4 m/s 749 mmHg 89%
    07:00 +11°C° 0 mm 4 m/s 749 mmHg 89%
    08:00 +11°C° 0 mm 4 m/s 749 mmHg 88%
    09:00 +13°C° 0 mm 4 m/s 749 mmHg 83%
    10:00 +14°C° 0 mm 4 m/s 749 mmHg 77%
    11:00 +15°C° 0 mm 4 m/s 749 mmHg 72%
    12:00 +18°C° 0 mm 4 m/s 748 mmHg 67%
    13:00 +19°C° 0 mm 4 m/s 748 mmHg 63%
    14:00 +20°C° 0 mm 4 m/s 747 mmHg 58%
    15:00 +19°C° 0 mm 4 m/s 747 mmHg 61%
    16:00 +19°C° 0 mm 4 m/s 747 mmHg 64%
    17:00 +19°C° 0 mm 3 m/s 747 mmHg 67%
    18:00 +17°C° 0 mm 3 m/s 747 mmHg 74%
    19:00 +14°C° 0 mm 3 m/s 748 mmHg 81%
    20:00 +12°C° 0 mm 3 m/s 748 mmHg 88%
    21:00 +11°C° 0 mm 3 m/s 748 mmHg 88%
    22:00 +10°C° 0 mm 3 m/s 748 mmHg 89%
    23:00 +10°C° 0 mm 4 m/s 749 mmHg 89%

    Demain, 23 Septembre, Lundi

    Heure Température Précipitation Vent Pression Humidité
    00:00 +8°C° 0 mm 4 m/s 749 mmHg 85%
    01:00 +8°C° 0 mm 4 m/s 750 mmHg 80%
    02:00 +8°C° 0 mm 4 m/s 750 mmHg 75%
    03:00 +8°C° 0 mm 4 m/s 750 mmHg 75%
    04:00 +7°C° 0 mm 4 m/s 750 mmHg 75%
    05:00 +6°C° 0 mm 4 m/s 750 mmHg 74%
    06:00 +6°C° 0 mm 4 m/s 751 mmHg 73%
    07:00 +6°C° 0 mm 4 m/s 751 mmHg 73%
    08:00 +6°C° 0 mm 4 m/s 751 mmHg 72%
    09:00 +7°C° 0 mm 4 m/s 752 mmHg 66%
    10:00 +8°C° 0 mm 4 m/s 752 mmHg 60%
    11:00 +10°C° 0 mm 4 m/s 752 mmHg 54%
    12:00 +11°C° 0 mm 4 m/s 752 mmHg 51%
    13:00 +11°C° 0 mm 4 m/s 752 mmHg 49%
    14:00 +12°C° 0 mm 4 m/s 752 mmHg 46%
    15:00 +12°C° 0 mm 3 m/s 752 mmHg 48%
    16:00 +11°C° 0 mm 3 m/s 751 mmHg 50%
    17:00 +12°C° 0 mm 2 m/s 751 mmHg 52%
    18:00 +9°C° 0 mm 2 m/s 751 mmHg 56%
    19:00 +8°C° 0 mm 2 m/s 751 mmHg 60%
    20:00 +6°C° 0 mm 2 m/s 752 mmHg 64%
    21:00 +4°C° 0 mm 3 m/s 752 mmHg 65%
    22:00 +4°C° 0 mm 3 m/s 752 mmHg 67%
    23:00 +3°C° 0 mm 3 m/s 752 mmHg 69%

    Après-demain, 24 Septembre, Mardi

    Heure Température Précipitation Vent Pression Humidité
    00:00 +3°C° 0 mm 3 m/s 752 mmHg 70%
    01:00 +3°C° 0 mm 3 m/s 752 mmHg 71%
    02:00 +2°C° 0 mm 3 m/s 751 mmHg 72%
    03:00 +2°C° 0 mm 3 m/s 751 mmHg 73%
    04:00 +2°C° 0 mm 3 m/s 751 mmHg 73%
    05:00 +2°C° 0 mm 3 m/s 751 mmHg 74%
    06:00 +2°C° 0 mm 3 m/s 751 mmHg 70%
    07:00 +3°C° 0 mm 3 m/s 750 mmHg 66%
    08:00 +4°C° 0 mm 3 m/s 750 mmHg 62%
    09:00 +8°C° 0 mm 3 m/s 750 mmHg 57%
    10:00 +10°C° 0 mm 3 m/s 750 mmHg 52%
    11:00 +12°C° 0 mm 3 m/s 750 mmHg 48%
    12:00 +13°C° 0 mm 3 m/s 750 mmHg 47%
    13:00 +13°C° 0 mm 3 m/s 749 mmHg 46%
    14:00 +14°C° 0 mm 3 m/s 749 mmHg 46%
    15:00 +14°C° 0 mm 3 m/s 748 mmHg 50%
    16:00 +14°C° 0 mm 2 m/s 748 mmHg 54%
    17:00 +14°C° 0 mm 2 m/s 748 mmHg 58%
    18:00 +12°C° 0 mm 2 m/s 748 mmHg 61%
    19:00 +9°C° 0 mm 2 m/s 748 mmHg 65%
    20:00 +8°C° 0 mm 3 m/s 748 mmHg 69%
    21:00 +7°C° 0 mm 3 m/s 748 mmHg 69%
    22:00 +7°C° 0 mm 3 m/s 748 mmHg 69%
    23:00 +5°C° 0 mm 3 m/s 748 mmHg 69%

    25 Septembre, Mercredi

    Heure Température Précipitation Vent Pression Humidité
    00:00 +5°C° 0 mm 3 m/s 747 mmHg 70%
    01:00 +4°C° 0 mm 3 m/s 747 mmHg 71%
    02:00 +4°C° 0 mm 3 m/s 747 mmHg 72%
    03:00 +4°C° 0 mm 3 m/s 747 mmHg 74%
    04:00 +4°C° 0 mm 3 m/s 746 mmHg 75%
    05:00 +4°C° 0 mm 3 m/s 746 mmHg 77%
    06:00 +5°C° 0 mm 3 m/s 746 mmHg 73%
    07:00 +5°C° 0 mm 4 m/s 745 mmHg 68%
    08:00 +6°C° 0 mm 4 m/s 745 mmHg 64%
    09:00 +8°C° 0 mm 4 m/s 745 mmHg 62%
    10:00 +10°C° 0 mm 4 m/s 745 mmHg 60%
    11:00 +12°C° 0 mm 4 m/s 745 mmHg 59%
    12:00 +13°C° 0 mm 5 m/s 744 mmHg 58%
    13:00 +14°C° 0 mm 5 m/s 744 mmHg 58%
    14:00 +15°C° 0 mm 5 m/s 743 mmHg 58%
    15:00 +15°C° 0 mm 5 m/s 743 mmHg 61%
    16:00 +15°C° 0 mm 4 m/s 743 mmHg 64%
    17:00 +16°C° 0 mm 3 m/s 742 mmHg 67%
    18:00 +14°C° 0 mm 3 m/s 742 mmHg 71%
    19:00 +13°C° 0 mm 3 m/s 742 mmHg 75%
    20:00 +13°C° 0 mm 2 m/s 742 mmHg 79%
    21:00 +13°C° 0.3 mm 2 m/s 742 mmHg 83%
    22:00 +13°C° 0.3 mm 2 m/s 742 mmHg 88%
    23:00 +13°C° 0.3 mm 2 m/s 742 mmHg 93%

    26 Septembre, Jeudi

    Heure Température Précipitation Vent Pression Humidité
    00:00 +13°C° 0.3 mm 2 m/s 742 mmHg 94%
    01:00 +12°C° 0.3 mm 3 m/s 741 mmHg 95%
    02:00 +12°C° 0.3 mm 3 m/s 741 mmHg 95%
    03:00 +12°C° 0.1 mm 3 m/s 741 mmHg 96%
    04:00 +12°C° 0.1 mm 3 m/s 741 mmHg 97%
    05:00 +13°C° 0.1 mm 2 m/s 741 mmHg 97%
    06:00 +12°C° 0.1 mm 3 m/s 741 mmHg 97%
    07:00 +12°C° 0.1 mm 3 m/s 741 mmHg 96%
    08:00 +13°C° 0.1 mm 3 m/s 741 mmHg 96%
    09:00 +13°C° 0 mm 3 m/s 741 mmHg 94%
    10:00 +13°C° 0 mm 3 m/s 742 mmHg 92%
    11:00 +14°C° 0 mm 3 m/s 742 mmHg 90%
    12:00 +14°C° 0 mm 3 m/s 742 mmHg 88%
    13:00 +16°C° 0 mm 3 m/s 742 mmHg 86%
    14:00 +16°C° 0 mm 3 m/s 742 mmHg 85%
    15:00 +16°C° 0.2 mm 3 m/s 742 mmHg 86%
    16:00 +16°C° 0.2 mm 2 m/s 742 mmHg 87%
    17:00 +15°C° 0.2 mm 2 m/s 742 mmHg 88%
    18:00 +15°C° 0.1 mm 2 m/s 743 mmHg 90%
    19:00 +14°C° 0.1 mm 2 m/s 743 mmHg 93%
    20:00 +12°C° 0.1 mm 3 m/s 743 mmHg 96%
    21:00 +11°C° 0 mm 3 m/s 743 mmHg 96%
    22:00 +12°C° 0 mm 2 m/s 744 mmHg 96%
    23:00 +10°C° 0 mm 2 m/s 744 mmHg 96%

    27 Septembre, Vendredi

    Heure Température Précipitation Vent Pression Humidité
    00:00 +10°C° 0 mm 2 m/s 744 mmHg 96%
    01:00 +10°C° 0 mm 2 m/s 744 mmHg 96%
    02:00 +10°C° 0 mm 2 m/s 744 mmHg 96%
    03:00 +10°C° 0 mm 2 m/s 745 mmHg 96%
    04:00 +9°C° 0 mm 2 m/s 745 mmHg 95%
    05:00 +9°C° 0 mm 2 m/s 745 mmHg 95%
    06:00 +9°C° 0 mm 3 m/s 745 mmHg 93%
    07:00 +9°C° 0 mm 3 m/s 745 mmHg 92%
    08:00 +9°C° 0 mm 3 m/s 745 mmHg 90%
    09:00 +10°C° 0 mm 3 m/s 746 mmHg 86%
    10:00 +11°C° 0 mm 3 m/s 746 mmHg 82%
    11:00 +11°C° 0 mm 3 m/s 747 mmHg 78%
    12:00 +12°C° 0 mm 3 m/s 747 mmHg 76%
    13:00 +13°C° 0 mm 2 m/s 747 mmHg 74%
    14:00 +14°C° 0 mm 2 m/s 747 mmHg 72%
    15:00 +14°C° 0 mm 2 m/s 747 mmHg 72%
    16:00 +13°C° 0 mm 2 m/s 747 mmHg 73%
    17:00 +13°C° 0 mm 2 m/s 747 mmHg 74%
    18:00 +13°C° 0 mm 2 m/s 748 mmHg 76%
    19:00 +12°C° 0 mm 2 m/s 748 mmHg 78%
    20:00 +11°C° 0 mm 1 m/s 748 mmHg 80%
    21:00 +10°C° 0 mm 2 m/s 748 mmHg 83%
    22:00 +9°C° 0 mm 2 m/s 749 mmHg 86%
    23:00 +9°C° 0 mm 2 m/s 749 mmHg 88%
    Voir plus